Time,TemperatureF,DewpointF,PressureIn,WindDirection,WindDirectionDegrees,WindSpeedMPH,WindSpeedGustMPH,Humidity,HourlyPrecipIn,Conditions,Clouds,dailyrainin,SoftwareType,DateUTC
2013-02-12 10:20:00,40.2,31.9,29.77,NNW,345,2.0,2.0,72,0.00,,,0.00,Wunderground v.1.15,2013-02-12 15:20:00,
2013-02-12 10:25:00,40.4,32.1,29.77,North,354,1.0,4.0,72,0.00,,,0.00,Wunderground v.1.15,2013-02-12 15:25:00,
2013-02-12 10:30:00,40.5,31.1,29.77,WNW,285,2.0,3.0,69,0.00,,,0.00,Wunderground v.1.15,2013-02-12 15:30:00,
2013-02-12 10:35:00,40.6,30.5,29.77,WNW,293,3.0,3.0,67,0.00,,,0.00,Wunderground v.1.15,2013-02-12 15:35:00,
2013-02-12 10:40:00,40.7,31.0,29.77,WNW,299,3.0,3.0,68,0.00,,,0.00,Wunderground v.1.15,2013-02-12 15:40:00,
2013-02-12 10:45:00,40.8,31.1,29.77,North,356,2.0,3.0,68,0.00,,,0.00,Wunderground v.1.15,2013-02-12 15:45:00,
2013-02-12 10:50:00,40.8,30.7,29.77,West,270,2.0,2.0,67,0.00,,,0.00,Wunderground v.1.15,2013-02-12 15:50:00,
2013-02-12 10:55:00,40.8,30.3,29.77,NW,309,2.0,2.0,66,0.00,,,0.00,Wunderground v.1.15,2013-02-12 15:55:00,
2013-02-12 17:40:00,37.8,27.8,29.79,NW,323,0.0,0.0,67,0.00,,,0.00,Wunderground v.1.15,2013-02-12 22:40:00,
2013-02-12 17:45:00,37.6,27.6,29.80,WNW,295,0.0,0.0,67,0.00,,,0.00,Wunderground v.1.15,2013-02-12 22:45:00,
2013-02-12 17:50:00,37.4,27.8,29.80,NW,307,0.0,0.0,68,0.00,,,0.00,Wunderground v.1.15,2013-02-12 22:50:00,
2013-02-12 17:55:00,37.4,27.8,29.81,WNW,290,0.0,0.0,68,0.00,,,0.00,Wunderground v.1.15,2013-02-12 22:55:00,
2013-02-12 18:00:00,37.4,27.8,29.82,WNW,285,0.0,0.0,68,0.00,,,0.00,Wunderground v.1.15,2013-02-12 23:00:00,
2013-02-12 18:10:00,37.6,27.6,29.83,NW,322,0.0,0.0,67,0.00,,,0.00,Wunderground v.1.15,2013-02-12 23:10:00,
2013-02-12 18:20:00,37.2,27.6,29.82,NNW,336,0.0,0.0,68,0.00,,,0.00,Wunderground v.1.15,2013-02-12 23:20:00,
2013-02-12 18:30:00,36.2,27.7,29.84,SSW,212,0.0,0.0,71,0.00,,,0.00,Wunderground v.1.15,2013-02-12 23:30:00,
2013-02-12 18:35:00,35.4,27.3,29.84,SSW,211,0.0,0.0,72,0.00,,,0.00,Wunderground v.1.15,2013-02-12 23:35:00,
2013-02-12 18:45:00,34.4,27.6,29.86,NNW,340,0.0,0.0,76,0.00,,,0.00,Wunderground v.1.15,2013-02-12 23:45:00,
2013-02-12 21:20:00,35.9,27.7,29.88,NNW,339,0.0,3.0,72,0.00,,,0.00,Wunderground v.1.15,2013-02-13 02:20:00,
2013-02-12 21:25:00,35.9,27.7,29.88,NNW,338,0.0,3.0,72,0.00,,,0.00,Wunderground v.1.15,2013-02-13 02:25:00,
2013-02-12 21:30:00,35.7,27.9,29.88,NNW,339,0.0,3.0,73,0.00,,,0.00,Wunderground v.1.15,2013-02-13 02:30:00,
2013-02-12 21:40:00,35.2,27.7,29.88,WNW,300,0.0,3.0,74,0.00,,,0.00,Wunderground v.1.15,2013-02-13 02:40:00,
2013-02-12 21:45:00,35.1,27.6,29.88,WNW,300,0.0,3.0,74,0.00,,,0.00,Wunderground v.1.15,2013-02-13 02:45:00,
2013-02-12 21:50:00,34.9,27.5,29.87,WNW,299,0.0,3.0,74,0.00,,,0.00,Wunderground v.1.15,2013-02-13 02:50:00,
2013-02-12 21:55:00,34.7,27.6,29.87,WNW,300,0.0,3.0,75,0.00,,,0.00,Wunderground v.1.15,2013-02-13 02:55:00,
2013-02-12 22:00:00,34.4,27.6,29.86,WNW,299,0.0,0.0,76,0.00,,,0.00,Wunderground v.1.15,2013-02-13 03:00:00,